Back to catalog

ION-SCV-022

AliveScienceSSO
NORAD 66682·PAYLOAD·🇮🇹 Italy

Launched Nov 28, 2025 from Vandenberg Space Force Base

Loading…

Next Passes (next 24 hours)

TLE

FreshSource: Space-Track

Epoch: Sep 14, 2026, 10:15 UTC

1 66682U 25276S   26257.42733529  .00000069  00000-0  10547-4 0  9993
2 66682  97.5222 324.8986 0004202 221.3515 138.7390 14.98043922 43431

Track ION-SCV-022 in real time with AllMySat

Download on the App Store